Back to catalog

FENGYUN 1C DEB

AlivePO
NORAD 30639·DEBRIS·🇨🇳 China

Launched May 10, 1999 from Taiyuan Satellite Launch Center

Loading…

Next Passes (next 24 hours)

TLE

FreshSource: Space-Track

Epoch: Sep 13, 2026, 20:51 UTC

1 30639U 99025ANW 26256.86897773  .00005036  00000-0  16991-2 0  9994
2 30639  99.0279  25.9458 0064859 197.3363 162.5606 14.36238957  6624

Track FENGYUN 1C DEB in real time with AllMySat

Download on the App Store